Погода Фролово

Погода Фролово : погода сейчас, прогноз погоды и архив. Всё, что Вы хотите узнать о погоде Фролово!

Поиск расширенной информации на нашем сайте:

Другие новости

Новости СМИ2

Главная страница сайта

Новости сайта

03.07.2017

Напоминаем, что на нашем специализированном сайте Метеоцентр.Азия вы можете получить высокодетализированные автоматические прогнозы погоды по пунктам России, СНГ и мира в авиационном формате (включающие направление и скорость ветра, видимость, явления погоды, количество и форму облачности, нижнюю и верхнюю границу облачности).


Погода Фролово - сегодня

Время (UTC), дата Ветер
(°,м/с) 
Видим.   Явления Облачность Т
(°С)
Тd
(°С)
f(%) Тe
(°С)
Pmin
(гПа)
dP
(гПа)
Po
(мм)
O2
(г/м3)
Тmin Tmax R s Состояние
почвы
09 19.09.17 190 (Ю) 10 км    ясно 
+30.9 +5 20 +31  1015.3  -0.4  751  271           
12 19.09.17 230 (ЮЗ) 3{11}  10 км    ясно 
+31.9 +4.4 18 +32  1014.6  -0.6  751  270           
15 19.09.17 тихо ()   10 км    ясно 
+25.5 +9.7 37 +26  1015  0.1  751  275    +32.1       
18 19.09.17 020 (С) 20000 м    ясно 
+19.8 +6.4 42 +21  1015.8  0.5  751  281           
21 19.09.17 030 (СВ) 20000 м    ясно 
+18.9 +9.3 54 +20  1016.1  0.3  752  282           
00 20.09.17 020 (С) 20000 м    ясно 
+15.3 +9.3 67 +17  1016.7  0.4  752  285           
03 20.09.17 050 (СВ) 10 км    ясно 
+13.8 +8.7 71 +15  1017.2  0.4  752  287  +13.7        сухая 
06 20.09.17 040 (СВ) 10 км    ясно 
+23.6 +9 39 +24  1017.4  0.7  753  278           
09 20.09.17 060 (СВ) 10 км    8/0 верхняя 
[Cs]
+30.6 +5.8 21 +31  1016.4  -0.7  752  272           
12 20.09.17 080 (В) 10 км    ясно 
+31.3 +2.5 16 +31  1015.8  -0.6  752  271           
15 20.09.17 050 (СВ) 10 км    ясно 
+26.5 +6.6 28 +27  1016.1  0.1  752  275    +31.6       
18 20.09.17 060 (СВ) 20000 м    ясно 
+21.9 +7.7 40 +22  1017.3  753  279           
21 20.09.17 050 (СВ) 2{11}  20000 м    ясно 
+20 +7.4 44 +20  1017.4  753  281           
00 21.09.17 080 (В) 20000 м    ясно 
+17.8 +7.1 49 +18  1017.5  753  284           
03 21.09.17 090 (В) 10 км    ясно 
+15.6 +6.1 53 +16  1018.7  753  286  +15.6        сухая 
06 21.09.17 080 (В) 10 км    ясно 
+20.9 +7 41 +21  1018.5  0.1  753  281  +15.1         
09 21.09.17 090 (В) 6-10{11}  10 км    ясно 
+27.7 +5.9 25 +28  1017.7  -0.5  753  275           
12 21.09.17 110 (В) 3{11}  10 км    ясно 
+30.4 +3.8 18 +30  1017.5  753  272           
15 21.09.17 080 (В) 4{10}  10 км    ясно 
+25.3 +5.4 28 +25  1018.1  0.3  753  277    +30.6       
18 21.09.17 070 (В) 5{10}  20000 м    ясно 
+21.5 +3.6 31 +22  1019.1  0.8  754  281           
21 21.09.17 080 (В) 5{11}  20000 м    ясно 
+18.8 +3.7 37 +19  1019.9  0.7  754  284           
00 22.09.17 080 (В) 6-11{13}  20000 м    ясно 
+16.4 +5.5 48 +16  1020  754  286           
03 22.09.17 070 (В) 10 км    ясно 
+14.2 +6.2 59 +14  1021  0.9  755  288  +14.2        сухая 
06 22.09.17 080 (В) 6-13{15}  10 км    ясно 
+18.3 +6.5 46 +18  1021.8  756  284  +14.1         
09 22.09.17 090 (В) 5-11{15}  10 км    ясно 
+21 +5.1 35 +21  1023.2  1.4  757  282           
Время (UTC), дата Ветер
(°,м/с) 
Видим.   Явления Облачность Т
(°С)
Тd
(°С)
f(%) Тe
(°С)
Pmin
(гПа)
dP
(гПа)
Po
(мм)
O2
(г/м3)
Тmin Tmax R s Состояние
почвы

Для получения пояснительной информации подведите курсор к названию столбца.

ПОГОДА Фролово - архив

Всё, что Вы хотите узнать о погоде Фролово - удобно и подробно!

Выберите нужную дату (начиная с 1 января 2015* года) и нажмите кнопку "Найти".
Будут отображены архивные сводки погоды по пункту Фролово, начиная с указанной даты.


Отображать данные в формате CSV (для использования в таблицах Excel)


Внимание! Наш архив погоды предназначен исключительно для личного некоммерческого использования в познавательных целях. Если Вам необходимы официальные справки о состоянии погоды (для производственных, юридических, коммерческих и т.п. целей), обращайтесь в органы Росгидромета.

*Примечание: данная дата относится к архиву по метеостанциям СССР (Россия, СНГ, Балтия).
Архив по метеостанциям Зарубежной Европы и Азии (кроме Китая) хранится 10 дней, по другим регионам земного шара (Китай, Африка, Америка, Австралия, Океания) - 1 день.

Фролово - район местоположения метеостанции


Название, широта, долгота, высота метеостанции:
Фролово 49.8°ш. 43.7°д. 119 м над ур. моря [Российская Федерация]

Дополнительная информация

В oтличие oт бoльшинства пoгoдных сайтoв мы публикуем пoдрoбную метеoинфoрмацию в детальнoм прoфессиoнальнoм фoрмате.

Характеристики температуры и влажнoсти вoздуха измеряются на высoте 2 м в тени вдали oт зданий и деревьев.
Скoрoсть ветра измеряется на высoте 10 м (на урoвне рoста челoвека скoрoсть ветра ниже в 1.5-2 раза). Если метеoстанция нахoдится в гoрoде или в лесу, тo скoрoсть ветра занижена на 2-4 м/с пo сравнению с oткрытым местoм. Скoрoсть ветра над акватoриями крупных рек и oзёр, а также на вершинах хoлмoв на 2-5 м/с выше, чем в oбычных услoвиях.
Атмoсфернoе давление в разных тoчках местнoсти мoжет значительнo oтличаться oт давления на метеoстанции, в зависимoсти oт услoвий рельефа (при пoдъёме на 10 м давление пoнижается примернo на 1 мм рт.ст.).